{"data":{"norad_id":67635,"intl_designator":"2026-020U","name":"STARLINK-36627","alt_names":[],"object_type":"PAYLOAD","status":"ACTIVE","operator":null,"country":"US","launch_date":"2026-01-30","launch_site_code":"AFETR","launch_vehicle":null,"mission":null,"orbit_class":"UNKNOWN","rcs_meters":null,"size_class":null,"mass_kg":null,"dimensions":null,"purposes":["comms"],"wikipedia_slug":null,"has_3d_model":false,"image_url":null,"decayed_at":null,"tle_current":{"epoch":"2026-09-19T00:40:46.917120Z","epoch_age_seconds":196060,"freshness":"STALE","line1":"1 67635U 26020U   26262.02832080  .00016998  00000+0  62564-3 0  9996","line2":"2 67635  43.0024 127.7849 0000799 354.1310   5.9533 15.27588453 35687","mean_motion":15.27588453,"eccentricity":7.99e-5,"inclination_deg":43.0024,"raan_deg":127.7849,"arg_perigee_deg":354.131,"mean_anomaly_deg":5.9533,"bstar":0.00062564,"rev_number":3568,"period_min":94.266227083087,"perigee_km":482.47557808671,"apogee_km":483.57199158013,"semimajor_km":6861.1607848334,"source":"CELESTRAK","updated_at":"2026-09-20T09:00:43.614740Z"}}}